MPEC 2023-R233 : 2023 RK10
The following Minor Planet Electronic Circular may be linked-to from your own Web pages, but must not otherwise be redistributed electronically.A form allowing access to any MPEC is at the bottom of this page.


M.P.E.C. 2023-R233 Issued 2023 September 15, 14:43 UT The Minor Planet Electronic Circulars contain information on unusual minor planets, routine data on comets and natural satellites, and occasional editorial announcements. They are published on behalf of Division F of the International Astronomical Union by the Minor Planet Center, Smithsonian Astrophysical Observatory, Cambridge, MA 02138, U.S.A. Prepared using the Tamkin Foundation Computer Network MPC@CFA.HARVARD.EDU URL https://www.minorplanetcenter.net/ ISSN 1523-6714 2023 RK10 Observations: K23R10K* C2023 09 13.33542023 58 41.739+31 00 58.38 22.07wXER233F52 K23R10K C2023 09 13.34765723 58 40.784+31 00 53.44 22.40wXER233F52 K23R10K C2023 09 13.35990623 58 39.794+31 00 48.13 22.71wXER233F52 K23R10K C2023 09 13.37212823 58 38.788+31 00 42.62 21.93wXER233F52 K23R10K 3C2023 09 14.52361223 57 46.017+30 47 40.40 21.59GVER233T14 K23R10K 3C2023 09 14.52482023 57 45.912+30 47 39.35 21.61GVER233T14 K23R10K 3C2023 09 14.52602823 57 45.806+30 47 38.25 21.57GVER233T14 K23R10K 3C2023 09 14.52723823 57 45.702+30 47 37.18 21.59GVER233T14 K23R10K 1C2023 09 14.99261 23 57 30.73 +30 40 56.0 21.9 VXER233033 K23R10K 1C2023 09 14.99620 23 57 30.46 +30 40 53.5 21.7 VXER233033 K23R10K 1C2023 09 14.99978 23 57 30.22 +30 40 50.9 21.8 VXER233033 K23R10K KC2023 09 15.20403823 57 24.87 +30 38 33.0 21.8 VuER233H21 K23R10K KC2023 09 15.21245723 57 24.21 +30 38 27.4 22.0 VuER233H21 K23R10K KC2023 09 15.21807023 57 23.74 +30 38 23.2 22.0 VuER233H21 Observer details: 033 Karl Schwarzschild Observatory, Tautenburg. Observers S. Melnikov, C. Hoegner, F. Ludwig, M. Hartmann, B. Stecklum. Measurer B. Stecklum. 1.34-m f/3 Schmidt + CCD. F52 Pan-STARRS 2, Haleakala. Observers J. Bulger, T. Lowe, P. Minguez, A. Schultz, I. Smith. Measurers K. Chambers, T. de Boer, J. Bulger, J. Fairlamb, H. Gao, M. Huber, C.-C. Lin, T. Lowe, E. Magnier, P. Minguez, Y. Ramanjooloo, A. Schultz, I. Smith, R. Wainscoat, R. Weryk. 1.8-m Ritchey- Chretien + CCD. H21 Astronomical Research Observatory, Westfield. Observer R. Holmes. Measurers T. Linder, R. Holmes, L. Horn. 0.81-m f/4.0 astrograph + CCD. T14 Canada-France-Hawaii Telescope, Maunakea. Observers R. Wainscoat, L. Wells, H. Flewelling. Measurers R. Weryk, R. Wainscoat. 3.6-m Canada- France-Hawaii Telescope + CCD. Orbital elements: 2023 RK10 Earth MOID = 0.0537 AU Epoch 2023 Sept. 13.0 TT = JDT 2460200.5 Veres M 32.76456 (2000.0) P Q n 0.84957550 Peri. 64.11396 +0.71700990 +0.69629269 a 1.1040822 Node 251.73602 -0.65125449 +0.65239387 e 0.0381623 Incl. 1.97704 -0.24852442 +0.29926364 P 1.16 H 25.97 G 0.15 U 9 Residuals in seconds of arc 230913 F52 0.1+ 0.0 230914 T14 0.0 0.0 230914 033 0.4+ 0.4+ 230913 F52 0.0 0.0 230914 T14 0.0 0.0 230915 H21 0.2- 0.0 230913 F52 0.1- 0.0 230914 T14 0.0 0.0 230915 H21 0.1+ 0.1+ 230913 F52 0.0 0.0 230914 033 0.0 0.1- 230915 H21 0.0 0.1- 230914 T14 0.0 0.0 230914 033 0.0 0.2+ Ephemeris: 2023 RK10 a,e,i = 1.10, 0.04, 2 q = 1.0619 Date TT R. A. (2000) Decl. Delta r Elong. Phase V 2023 08 16 23 57 45.1 +28 07 55 0.08061 1.0625 126.2 50.3 22.5 ... 2023 08 31 00 03 28.6 +31 29 57 0.07737 1.0652 134.4 42.7 22.2 ... 2023 09 08 00 01 31.6 +31 39 03 0.07657 1.0674 139.9 37.4 22.0 ... 2023 09 14 23 58 10.4 +30 53 34 0.07663 1.0695 144.5 33.1 21.9 2023 09 15 23 57 30.8 +30 41 30 0.07672 1.0699 145.3 32.4 21.9 2023 09 16 23 56 50.1 +30 28 12 0.07683 1.0703 146.1 31.6 21.9 ... 2023 09 22 23 52 40.9 +28 43 48 0.07807 1.0727 150.6 27.3 21.8 ... 2023 09 30 23 48 04.5 +25 32 26 0.08149 1.0763 155.5 22.7 21.8 ... 2023 10 15 23 46 11.5 +18 23 09 0.09449 1.0842 155.5 22.4 22.1 M. P. C. Staff (C) Copyright 2023 MPC M.P.E.C. 2023-R233


Enter an MPEC number in one of the following forms:
- 1997-B01 (the full form)
- J97B01 (the packed version of the full form)
- B01 (the abbreviated form)